User: anonymous
Location: Pine Mountain Observatory
(43.7910°N, 120.9377°W)
Time: 17:13:23
(UTC-07:00)
Language:

Cosmos 1867 - Orbit

View from above orbital plane
View from above orbital plane
View from above satellite
View from above satellite

Ground track
Ground track

The orbit data is extracted from the following two-line orbital elements,

1 18187U 87060A   14106.48970891 -.00000027  00000-0  27890-4 0   243
2 18187 065.0116 228.5897 0017558 259.9704 167.5038 14.31017386398340
Epoch (UTC): 16 April 2014 11:45:10
Eccentricity: 0.0017558
inclination: 65.0116°
perigee height: 776 km
apogee height: 801 km
right ascension of ascending node: 228.5897°
argument of perigee: 259.9704°
revolutions per day: 14.31017386
mean anomaly at epoch: 167.5038°
orbit number at epoch: 39834

The dashed part of the orbit path shows where the satellite is in the earth's shadow,  

DLR